Temp
46 44 44 44 44 43 43 44 46 46 46 46 46 45 47 47 46 44 41 41 41 43
46 45 44 45 45 44 45 48 47 47 46 46 46 45 45 44 43 44 42 41 42 44
46 47 46 45 45 45 45 46 46 46 46 45 46 45 44 45 44 45 42 43 41 45
46 47 46 45 46 46 46 46 46 46 46 45 45 45 43 47 48 43 43 43 43 44
46 46 45 45 46 47 46 46 46 46 46 46 45 44 43 47 47 43 43 43 42 43
45 45 44 45 46 47 46 45 46 46 45 45 45 44 44 44 46 47 44 44 43 42
44 45 45 45 46 46 46 45 45 45 45 45 45 46 44 44 42 45 44 44 44 43
45 46 46 45 45 45 45 45 45 45 44 44 45 49 42 42 42 41 42 43 44 44
47 46 45 44 44 44 44 43 44 43 43 42 47 51 51 47 41 42 42 41 41 43
47 46 45 45 44 43 41 42 42 42 42 41 41 51 52 51 43 43 42 41 40 42
47 45 45 44 43 42 41 41 41 41 42 41 43 51 52 51 42 41 42 42 40 39
47 45 45 43 42 41 41 40 41 42 41 40 40 50 51 48 41 42 41 44 42 41
47 45 44 43 42 42 41 42 43 43 41 45 41 48 51 48 42 39 40 41 43 49
46 45 44 43 43 42 41 42 40 41 41 41 42 41 50 50 42 40 40 39 40 41
MSLP
1025.88 1026.06 1026.09 1026.04 1025.98 1026.01 1026.00 1025.77 1025.32 1025.17 1025.12 1024.91 1024.68 1024.43 1024.16 1023.86 1023.66 1023.12 1023.07 1022.87 1022.72 1022.44
1025.47 1025.55 1025.65 1025.65 1025.64 1025.68 1025.42 1025.13 1024.94 1024.93 1024.85 1024.67 1024.48 1024.13 1023.88 1023.91 1023.52 1023.14 1022.80 1022.67 1022.37 1022.03
1024.90 1024.97 1025.11 1025.20 1025.19 1025.17 1024.90 1024.81 1024.75 1024.60 1024.49 1024.32 1024.18 1023.81 1023.62 1023.59 1023.35 1022.98 1022.67 1022.37 1022.08 1021.75
1024.38 1024.51 1024.66 1024.73 1024.70 1024.47 1024.30 1024.29 1024.27 1024.14 1024.15 1024.12 1023.99 1023.53 1023.46 1023.27 1023.15 1022.82 1022.42 1022.03 1021.77 1021.53
1023.74 1023.95 1024.12 1024.16 1024.01 1023.82 1023.98 1023.89 1023.81 1023.76 1023.87 1023.78 1023.63 1023.36 1023.17 1023.04 1022.86 1022.60 1022.05 1021.65 1021.55 1021.40
1023.28 1023.44 1023.56 1023.58 1023.58 1023.51 1023.71 1023.71 1023.55 1023.45 1023.51 1023.44 1023.31 1023.09 1022.78 1022.79 1022.62 1022.29 1021.75 1021.38 1021.35 1021.14
1022.85 1022.97 1023.07 1023.19 1023.31 1023.36 1023.36 1023.42 1023.35 1023.25 1023.22 1023.12 1023.00 1022.64 1022.50 1022.42 1022.43 1022.01 1021.46 1021.13 1020.96 1020.59
1022.20 1022.48 1022.70 1022.93 1023.02 1023.07 1023.09 1023.11 1023.03 1022.95 1022.88 1022.79 1022.66 1022.23 1022.12 1022.15 1022.12 1021.77 1021.26 1020.92 1020.70 1020.65
1021.59 1021.89 1022.20 1022.50 1022.61 1022.70 1022.78 1022.78 1022.65 1022.61 1022.54 1022.42 1022.16 1021.76 1021.56 1021.68 1021.80 1021.45 1021.04 1020.79 1020.64 1020.50
1020.89 1021.26 1021.60 1021.92 1022.14 1022.29 1022.47 1022.42 1022.27 1022.25 1022.20 1022.03 1021.85 1021.50 1021.22 1021.24 1021.38 1021.09 1020.75 1020.53 1020.49 1020.39
1020.18 1020.64 1020.97 1021.33 1021.60 1021.79 1021.93 1021.97 1021.87 1021.85 1021.79 1021.63 1021.44 1021.20 1021.09 1021.01 1021.06 1020.72 1020.33 1020.20 1020.18 1020.20
1019.44 1020.03 1020.41 1020.83 1021.02 1021.13 1021.34 1021.45 1021.40 1021.38 1021.36 1021.26 1021.10 1020.96 1020.81 1020.65 1020.75 1020.56 1020.21 1019.95 1019.84 1019.89
1018.85 1019.26 1019.76 1020.07 1020.38 1020.51 1020.70 1020.84 1020.88 1020.90 1020.80 1020.75 1020.61 1020.52 1020.42 1020.39 1020.45 1020.50 1020.21 1019.88 1019.62 1019.50
1018.12 1018.59 1018.95 1019.38 1019.72 1020.02 1020.30 1020.42 1020.50 1020.42 1020.23 1020.14 1020.07 1019.96 1019.98 1020.06 1020.05 1020.13 1020.09 1019.86 1019.54 1019.29
Wind_Speed
4 3 4 4 2 2 3 3 3 4 5 6 6 6 5 6 6 5 4 6 2 4
5 6 5 4 3 3 4 3 4 6 6 6 6 6 2 4 6 6 4 5 4 4
6 5 4 4 5 5 5 3 6 6 5 5 6 7 3 3 6 6 4 3 5 4
5 5 5 4 5 6 4 4 5 6 4 6 5 6 5 4 7 7 5 5 5 6
7 6 5 6 7 4 4 5 5 5 4 5 5 6 6 5 5 7 5 6 4 6
6 6 7 6 5 4 4 4 5 5 4 5 5 6 6 2 6 7 6 5 5 5
8 7 7 5 4 4 4 4 6 4 4 5 5 6 4 5 6 7 6 5 5 5
7 6 5 5 5 5 5 4 6 5 4 4 4 4 3 4 6 7 7 5 4 5
7 7 7 6 6 5 4 5 6 5 4 4 3 10 10 8 4 7 7 5 4 5
7 7 7 7 6 6 5 6 6 5 4 5 4 10 11 11 3 7 7 3 3 4
8 8 7 7 7 6 5 6 5 5 6 5 4 11 11 12 5 6 6 1 0 2
8 8 7 7 7 6 5 4 5 5 5 5 6 10 11 9 4 6 6 1 0 3
7 8 8 7 7 5 4 5 4 6 6 8 6 8 10 7 2 5 4 6 1 4
8 8 7 7 5 5 5 5 5 6 6 7 7 7 8 8 2 3 3 4 3 1
Wind_Direction
209 219 243 255 253 285 277 284 289 294 301 295 304 293 312 314 317 304 323 323 319 291
216 227 231 259 254 253 268 269 292 291 287 295 295 292 315 314 305 306 315 315 314 312
218 226 226 235 243 253 263 265 286 284 289 296 293 293 271 294 293 297 320 309 317 315
213 228 225 236 245 246 249 270 274 280 288 292 299 306 312 302 329 318 321 311 314 314
208 214 224 237 244 246 264 272 274 284 291 297 310 309 301 292 313 299 312 307 331 316
214 211 226 235 240 247 262 281 290 287 302 303 304 299 291 354 323 316 297 312 318 301
209 213 218 227 240 255 260 272 281 282 287 284 303 292 348 357 327 312 304 319 310 304
209 211 214 219 236 243 247 256 271 274 279 284 293 284 351 316 307 303 298 313 328 335
202 203 201 212 231 238 245 256 261 261 263 277 275 302 307 321 305 294 294 310 349 343
195 198 201 205 220 230 232 244 258 267 263 275 273 296 306 312 307 289 278 306 9 337
193 194 199 203 212 225 223 233 241 256 260 262 272 293 306 314 317 296 280 256 308 72
188 190 194 205 208 215 217 232 243 247 257 265 273 289 303 312 313 299 306 251 226 157
192 191 197 199 206 209 207 220 236 255 250 258 269 278 291 304 283 300 331 330 296 331
194 192 192 195 193 196 215 228 241 250 256 251 244 251 271 290 271 284 321 301 289 321